Location: Banff
(51.1670°N, 115.5670°W)
Time: 14:52:17
(UTC-06:00)

Daily predictions for brighter satellites

Satellite Brightness Start Highest point End
(mag) Time Altitude Azimuth Time Altitude Azimuth Time Altitude Azimuth
Cosmos 1269 Rocket 4.3 20:28:28 10° NNW 20:33:39 51° ENE 20:38:48 10° SE
Cosmos 1844 Rocket 2.8 20:28:08 10° SSW 20:33:48 88° SE 20:39:28 10° NNE
ALOS 2.3 20:29:38 10° SSE 20:34:18 90° S 20:39:01 10° NNW
Cosmos 1437 Rocket 2.8 20:30:28 10° S 20:34:30 85° E 20:38:38 10° NNE
Resurs 1-3 3.7 20:31:16 10° SSE 20:35:33 56° ENE 20:39:52 10° N
Meteor 1-4 Rocket 3.8 20:33:29 10° SE 20:36:07 20° E 20:38:46 10° NE
Cosmos 1408 Rocket 4.4 20:34:29 10° N 20:38:31 32° ENE 20:42:33 10° SE
Cosmos 2298 Rocket 4.1 20:33:24 10° SSW 20:38:43 90° WNW 20:44:06 10° NNE
Cosmos 1833 Rocket 2.9 20:34:42 10° NNW 20:40:15 56° NE 20:45:47 10° SE
NOSS 2 (F) 4.5 20:38:29 10° NW 20:41:16 73° NE 20:44:20 10° SE
Cosmos 1470 4.5 20:39:46 10° ESE 20:42:07 15° E 20:44:28 10° NE
Meteor 1-22 Rocket 4.4 20:36:19 10° S 20:42:11 72° E 20:48:16 10° NNE
Timation 2 Rocket 4.2 20:36:40 10° NNW 20:43:04 59° NE 20:49:07 10° SE
Cosmos 1340 Rocket 4.1 20:40:34 10° N 20:43:54 24° ENE 20:47:13 10° ESE
Cosmos 1544 3.7 20:41:21 10° SSE 20:44:40 34° E 20:48:02 10° NNE
SJ-6B 3.7 20:41:55 10° S 20:45:34 52° W 20:49:16 10° NNW
FENGYUN 3A 3.9 20:41:26 10° S 20:46:51 77° WSW 20:52:16 10° NNW
Cosmos 482 Debris 2.5 20:45:15 10° W 20:47:13 63° SSW 20:48:48 12° ESE
CZ-4B DEB 3.9 20:45:20 10° SE 20:47:57 25° ENE 20:50:35 10° N
Cosmos 405 4.5 20:46:01 10° SW 20:49:22 42° WNW 20:52:46 10° N
Cosmos 2278 Rocket 2.3 20:45:42 10° S 20:51:15 58° ESE 20:56:50 10° NE
Cosmos 2344 3.7 20:46:14 10° SSW 20:53:48 66° SE 21:02:43 10° NE
CZ-3B DEB 2.8 20:43:57 10° SW 20:54:17 62° SSE 20:58:59 10° ENE
Okean 3 Rocket 3.6 20:50:31 10° N 20:54:56 88° ENE 20:59:22 10° S
Cosmos 158 Rocket 4.0 20:51:06 10° NNW 20:56:10 63° ENE 21:01:20 10° SE
ATLAS CENTAUR R/B 2.7 20:58:38 10° NNW 20:59:28 13° N 21:00:21 10° NNE
H-2A R/B 3.1 20:56:32 10° S 21:00:26 73° WSW 21:04:25 10° NNW
ATLAS 5 CENTAUR R/B 3.1 20:58:48 10° SSE 21:02:02 18° ESE 21:05:27 10° ENE
USA 215 4.4 20:59:28 10° E 21:04:00 20° SE 21:08:31 10° SSE
Helios 1B rocket 3.1 21:02:57 10° NNE 21:06:44 34° E 21:10:30 10° SSE
Cosmos 2297 4.2 21:02:06 10° S 21:07:21 39° ESE 21:12:39 10° NE
Cosmos 1076 Rocket 3.4 21:03:20 10° N 21:07:37 79° E 21:11:51 10° SSE
Cosmos 1867 4.2 21:03:10 10° S 21:07:59 33° ESE 21:12:50 10° NE
Cosmos 1934 Rocket 4.2 21:02:50 10° SSW 21:08:58 77° W 21:15:04 10° N
Cosmos 1758 3.3 21:07:00 10° S 21:10:55 58° E 21:14:52 10° NNE
Spot 2 Rocket 3.9 21:05:50 10° S 21:10:56 68° WSW 21:16:04 10° NNW
USA 186 0.7 21:11:46 10° SSE 21:13:59 88° WSW 21:16:13 10° NNW
Cosmos 2082 Rocket 2.3 21:10:37 10° NNW 21:16:22 80° WSW 21:22:01 10° SSE
Lacrosse 5 1.8 21:13:25 10° SW 21:18:27 68° SE 21:23:31 10° ENE
Cosmos 1953 2.3 21:14:46 10° S 21:18:48 66° E 21:22:50 10° NNE
BREEZE-M DEB 4.4 21:15:12 10° WSW 21:19:27 68° S 21:21:15 22° E
Lacrosse 4 Rocket 2.8 21:16:21 10° WSW 21:20:10 39° NW 21:24:01 10° NNE
CZ-2C R/B 3.5 21:20:06 10° NNW 21:22:47 29° WNW 21:24:23 10° SW
Cosmos 1766 Rocket 3.5 21:19:15 10° N 21:23:46 84° E 21:28:15 10° SSE
Cosmos 1939 Rocket 3.1 21:21:27 12° SSE 21:25:08 55° ENE 21:29:13 10° N
CZ-4B DEB 4.5 21:21:49 10° SSE 21:25:24 85° ENE 21:29:01 10° NNW
GP-B 3.0 21:21:13 10° SSE 21:25:38 69° E 21:30:04 10° N
Helios 1A 3.1 21:21:51 10° SSE 21:26:01 81° WSW 21:30:15 10° NNW
Cosmos 1271 Rocket 3.3 21:23:14 10° SSE 21:26:59 39° E 21:30:46 10° NNE
Cosmos 1184 Rocket 3.6 21:23:55 10° N 21:27:05 35° ENE 21:28:25 25° ESE
SPOT 5 4.2 21:24:16 18° ESE 21:27:09 28° ENE 21:31:37 10° N
Envisat 2.9 21:23:54 10° SSE 21:28:57 73° ENE 21:34:03 10° NNW
Resurs 01 Rocket 3.1 21:27:42 10° SSW 21:31:50 39° W 21:36:01 10° NNW
H-2A R/B 3.6 21:33:28 17° E 21:35:30 21° NE 21:39:19 10° N
ARGOS 4.1 21:33:03 20° ESE 21:35:37 30° ENE 21:40:13 10° N
Lacrosse 5 rocket 1.5 21:32:02 10° WNW 21:35:59 57° SW 21:38:08 23° SSE
Geosat 4.0 21:32:22 10° NE 21:37:22 62° ESE 21:42:21 10° SSW
Cosmos 1674 2.9 21:33:39 10° NNW 21:37:25 71° W 21:41:12 10° S
Cosmos 1125 Rocket 3.4 21:33:04 10° SSW 21:38:15 74° ESE 21:43:30 10° NNE
Cosmos 2016 Rocket 4.3 21:33:08 10° SSE 21:38:54 42° E 21:44:38 10° NNE
Cosmos-2242 2.9 21:34:53 10° S 21:39:04 60° E 21:43:18 10° NNE
USA 267 3.4 21:35:29 18° E 21:40:28 68° NNE 21:46:58 10° WNW
Terra 3.7 21:43:38 13° ENE 21:44:39 14° NE 21:47:03 10° NNE
ERS-1 Rocket 3.0 21:43:21 20° SE 21:46:45 61° ENE 21:51:44 10° N
YAOGAN 6 2.9 21:45:19 31° SE 21:46:45 51° ENE 21:50:24 10° N
SJ-11-01 4.3 21:45:00 11° SSE 21:49:38 82° WSW 21:54:23 10° NNW
Meteor 1-29 2.8 21:47:23 10° NNE 21:50:52 80° ESE 21:54:21 10° SSW
Cosmos 2100 Rocket 4.0 21:48:39 10° S 21:54:58 78° E 22:01:23 10° NNE
Cosmos 1743 Rocket 3.5 21:50:48 10° N 21:55:16 86° E 21:58:13 21° SSE
Cosmos 2221 4.2 21:58:03 18° ENE 21:58:03 18° ENE 22:00:00 10° NE
Cosmos 1500 Rocket 3.4 21:52:39 10° N 21:56:59 67° ENE 21:58:55 31° SSE
COSMOS 2487 4.4 21:54:39 10° NW 21:57:46 28° WSW 22:00:50 10° SSW
Cosmos 1356 Rocket 3.3 21:54:40 10° N 21:58:50 68° ENE 22:00:22 36° SSE
Tsikada Rocket 4.1 21:52:56 10° N 21:59:00 54° ENE 22:02:21 27° SE
H-2A R/B 3.6 22:00:43 19° ENE 22:00:45 19° ENE 22:03:43 10° NNE
SL-08 RB Rocket 4.4 22:05:11 33° E 22:06:04 36° ENE 22:10:22 10° N
Cosmos 1626 3.2 22:06:03 10° N 22:08:57 30° NE 22:08:57 30° NE
Meteor 1-4 Rocket 4.4 22:07:58 10° SW 22:11:07 31° WNW 22:14:17 10° N
Cosmos 2251 Rocket 3.5 22:06:40 10° NNW 22:12:01 85° WSW 22:14:41 31° SSE
Cosmos 2369 Rocket 3.9 22:16:36 16° ENE 22:16:36 16° ENE 22:18:02 10° NE
Cosmos 1802 Rocket 3.9 22:10:10 10° S 22:16:19 87° E 22:22:33 10° N
Cosmos 1470 3.4 22:13:52 10° SSW 22:17:47 57° WNW 22:21:43 10° N
SPOT 1/Viking Rocket 3.9 22:17:42 40° ESE 22:18:56 48° ENE 22:23:57 10° N
Cosmos 1340 Rocket 4.2 22:16:46 10° NNW 22:20:31 37° W 22:23:30 14° SSW
Cosmos 2227 Rocket 4.5 22:19:17 10° N 22:21:56 13° NNE 22:24:34 10° NE
Cosmos 1833 Rocket 4.3 22:19:04 10° NW 22:23:54 30° WSW 22:28:42 10° SSW
Cosmos 1733 4.2 22:22:22 10° SSW 22:26:08 47° WNW 22:29:55 10° N
MetOp-B 4.0 22:26:18 38° SSE 22:28:27 88° ENE 22:33:51 10° NNW
Cosmos 389 Rocket 3.8 22:30:18 29° NNE 22:30:18 29° NNE 22:32:13 10° NNE
Cosmos 2058 2.7 22:25:31 10° N 22:29:43 85° ENE 22:30:09 71° SSE
Cosmos 2061 Rocket 4.3 22:23:47 10° SSW 22:30:11 73° WNW 22:36:40 10° N
Cosmos 1816 Rocket 4.4 22:26:37 10° N 22:32:50 77° E 22:35:16 40° SSE
NOAA 11 4.1 22:30:51 39° SSE 22:33:02 89° WSW 22:38:36 10° NNW
Cosmos 1842 Rocket 3.5 22:32:31 36° SSW 22:34:17 82° W 22:38:42 10° N
Cosmos 2151 3.1 22:31:19 10° NNW 22:35:34 69° W 22:36:29 51° SSW
Cosmos 2278 Rocket 3.9 22:30:33 10° WSW 22:35:40 33° NW 22:40:49 10° NNE
TIMED 4.4 22:39:29 41° SSW 22:40:59 86° WNW 22:45:23 10° NNE
USA 245 4.3 22:39:28 44° SSE 22:41:28 88° ENE 22:47:52 10° NNW
Helios 1B rocket 4.4 22:38:23 10° N 22:41:59 29° WNW 22:45:35 10° SW
Cosmos 1943 Rocket 4.4 22:49:22 11° NE 22:49:22 11° NE 22:49:33 10° NE
ATLAS 5 CENTAUR R/B 1.8 22:41:06 10° SW 22:45:56 87° NW 22:51:19 10° NE
USA 215 3.2 22:41:30 10° ENE 22:47:59 60° SE 22:54:25 10° SW
Cosmos 1867 4.1 22:45:58 10° WSW 22:51:21 59° NW 22:56:48 10° NE
Cosmos 2233 Rocket 3.9 22:52:25 56° SE 22:53:26 65° E 22:59:31 10° NNE
MOS 1-B Rocket 4.4 22:58:35 44° SSE 23:01:26 87° ENE 23:08:15 10° NNW
Lacrosse 5 2.6 22:56:42 10° W 23:01:39 51° NNW 23:03:51 30° NE
Cosmos 2219 4.2 22:56:37 10° NNW 23:01:42 33° NE 23:02:16 32° ENE
SPOT 5 3.5 23:03:31 44° SSW 23:04:54 57° W 23:10:10 10° NNW
CARTOSAT-1 4.5 23:06:18 40° NNE 23:06:18 40° NNE 23:09:25 10° N
Landsat 7 3.9 23:06:46 70° NNE 23:06:46 70° NNE 23:11:08 10° NNW
CZ-3B DEB 2.0 22:59:42 10° W 23:06:23 56° NNW 23:06:38 55° N
Sich 1 3.6 23:05:43 10° N 23:09:11 54° N 23:09:11 54° N
Cosmos 1666 Rocket 4.1 23:06:45 10° N 23:10:05 52° N 23:10:05 52° N
CZ-4C R/B 4.3 23:16:25 15° NE 23:16:25 15° NE 23:17:27 10° NE
Lacrosse 5 rocket 4.0 23:13:43 10° WSW 23:13:51 10° WSW 23:13:51 10° WSW
H-2A R/B 2.0 23:14:06 79° SSW 23:14:21 82° WSW 23:19:41 10° NNW
Cosmos 1633 Rocket 3.8 23:10:28 10° N 23:13:48 49° N 23:13:48 49° N
ARGOS 3.7 23:14:34 46° SW 23:15:38 53° W 23:20:54 10° NNW
Terra 2.2 23:22:31 57° N 23:22:31 57° N 23:26:24 10° NNW
USA 267 3.3 23:22:50 58° S 23:23:36 62° SW 23:30:05 10° WNW
Meteor 2-1 Rocket 4.5 23:23:26 48° SW 23:24:54 66° WNW 23:30:32 10° N
Cosmos 1190 Rocket 4.4 23:23:50 10° NNW 23:28:26 56° NNE 23:28:26 56° NNE
Cosmos 2221 3.6 23:34:52 43° NW 23:34:52 43° NW 23:38:19 10° N
H-2A R/B 3.4 23:37:50 36° NW 23:37:50 36° NW 23:40:30 10° NNW
Cosmos 1464 Rocket 4.2 23:40:06 59° NE 23:40:06 59° NE 23:45:28 10° NNE
Cosmos 2297 Rocket 3.9 23:37:01 10° NNW 23:41:27 23° NE 23:42:06 22° NE
